STARLINK-32789, 62529

Orbit data source: Space-Track

STARLINK-32789, 62529 is a payload satellite owned by SpaceX/Seattle (US) in LEO that was launched on Wed, 08 Jan 2025 UTC via an FALCON 9 launch vehicle from the Air Force Eastern Test Range (AFETR). Payload-class satellites include a variety of spacecraft equipped with specific instruments for various scientific and technological missions. These include communications satellites like Starlink; space stations such as the ISS; scientific satellites like the Hubble; Earth observation satellites from companies like Planet Labs, Umbra, and HawkEye 360; GPS; miniature CubeSats for education and research; and military/defense satellites.

Loading next visibility...
Identifier
62529, 2025-004U
Orbit
LEO
Country
Flag of USUS
Related business
Manufacturer
SpaceX/Seattle
Mission
Operational Commercial Communications
Bus & Motor
STARLINK V2M, Unknown motor
Mass
730 kg wet, ~700 kg dry
Launch date (UTC)
2025-01-08 (8 months ago)
Launch vehicle
FALCON 9
Launch site
Air Force Eastern Test Range (AFETR)
Object type
Payload
Rocket body
Debris
Shape & HBR
Box + 2 Pan, 14.5 m
Radar Cross Section
33.884 m², Large (>1 m²)

Expand to show TLE details & history
Last TLE update: 14 hours ago

TLE from 14 hours ago
0 STARLINK-32789
1 62529U 25004U   25258.36451298  .00029568  00000-0  10788-2 0  9991
2 62529  43.0008 130.1210 0000498 353.7767   6.3078 15.27606515 39642
Epoch: 2025-09-15T08:44Z
TLE epoch observation values (Epoch: 2025-09-15T08:44:53.921Z)
Latitude
-0.00005°
Longitude
4.32606°
Altitude
482.406 km
Speed
7.626 km/s
True Right ascension
08h 40m 29s
True Declination
0° 00' 00"
Sunlit
Object was in daylight at epoch
Visualization orbit readout
Latitude
Unknown
Longitude
Unknown
Altitude
Unknown
Speed
Unknown
Apparent Right ascension
Unknown
Apparent Declination
Unknown
Sunlit
N/A
Visualization observer readout
Local Sidereal Time
15:10:51
Azimuth
Unknown
Elevation
Unknown
Doppler factor
Unknown
Orbital elements
Apogee altitude
485.257 km
Perigee altitude
484.573 km
Semi-major axis
6,863.052 km
Eccentricity
0.00005
Inclination
43.0008°
RAAN
130.121°
Arg. of periapsis
353.7767°
True anomaly
6.30843°
Mean anomaly
6.3078°
Eccentric anomaly
6.30811°
Mean motion
3.8174 °/min
Orbital period
94.31 mins
BSTAR
0.0010788
Loading maneuver chart data...
Computing Atmospheric mass density...
Loading historical data...
Loading historical data...
Loading historical data...
Loading historical data...
Loading historical data...
Loading historical data...
Loading historical data...

Documentation

Showing up to 5 results
|